Wind_Speed
13 13 13 13 13 14 15 16 18 17 19 21 22 22 23 24 24 25 24 24 25 24 24 23 23 22 21 21 20 20 20 20 21 21 21 21 22 22 21 22 22 23 22 22
13 14 14 13 14 15 15 17 18 19 20 22 23 23 24 24 25 25 25 25 24 23 23 21 21 20 19 19 19 19 19 19 20 21 21 21 22 21 20 21 21 22 23 23
14 14 13 13 13 14 15 17 18 20 21 22 23 24 25 25 25 25 25 24 23 23 21 19 18 18 17 17 17 18 18 19 19 20 20 21 21 21 21 21 20 21 21 21
14 13 13 12 13 14 15 16 18 19 21 22 23 24 25 26 26 25 24 23 22 21 20 18 17 17 16 16 16 16 17 18 19 19 20 19 20 21 20 19 19 19 19 20
13 12 11 11 13 14 15 16 18 20 21 22 24 24 25 25 25 24 22 21 20 19 18 16 15 14 15 15 15 16 16 17 18 18 18 19 18 18 19 18 18 17 17 19
12 11 11 11 12 14 16 16 18 20 21 23 23 24 24 24 23 22 20 19 18 17 16 14 13 11 11 12 13 13 14 15 16 16 17 17 16 16 17 16 16 17 18 18
11 11 11 12 13 14 15 16 18 20 21 22 22 22 22 21 20 19 18 16 15 14 13 11 10 9 9 9 11 12 12 12 12 13 14 15 15 14 14 15 15 16 16 16
11 11 12 12 12 13 15 16 18 20 21 20 20 21 20 19 18 16 15 13 12 12 10 9 8 8 8 8 9 10 11 11 11 11 12 13 12 12 12 13 14 14 14 14
10 10 10 10 11 13 15 17 18 19 19 19 19 19 18 16 15 13 11 10 8 7 7 7 6 6 7 7 7 7 9 10 10 10 10 10 10 11 11 11 11 11 12 13
8 8 9 9 11 13 15 16 17 17 18 18 18 17 15 14 13 10 8 7 5 5 4 5 5 5 5 5 6 6 7 8 9 9 9 10 10 10 10 9 9 9 9 10
7 7 7 8 10 12 14 15 16 16 17 17 16 14 12 11 10 8 6 4 2 1 0 2 3 4 4 4 5 6 6 7 7 8 8 8 7 7 7 7 7 7 7 8
7 7 7 8 9 11 13 14 15 15 15 14 13 12 11 9 8 6 5 3 2 2 2 3 3 3 4 4 4 5 5 5 6 6 6 6 5 5 4 4 4 4 5 5
6 5 5 7 9 10 12 13 13 13 13 13 12 11 10 9 7 5 4 4 4 4 5 5 5 4 4 5 5 5 5 6 6 6 6 6 5 4 3 2 1 1 1 2
6 5 5 6 8 9 11 12 12 12 12 12 12 12 11 9 8 7 6 5 5 5 5 6 6 6 7 6 6 6 6 6 6 6 6 5 4 4 3 2 2 2 2 2
5 5 5 5 6 8 9 10 11 12 12 12 12 12 11 11 10 9 8 7 7 7 7 7 7 7 8 8 8 8 8 8 7 7 6 6 5 5 4 4 4 4 4 4
5 4 3 3 4 6 8 9 10 11 12 12 12 11 11 11 11 10 10 9 8 8 7 8 8 8 8 8 9 9 9 9 9 8 8 7 7 7 6 6 6 6 6 6
4 3 2 1 3 5 7 8 9 10 11 12 12 12 12 12 12 12 11 11 10 10 10 10 10 10 9 10 10 10 10 10 10 10 10 9 9 8 8 8 8 8 8 9
4 3 2 1 2 4 6 8 8 10 11 12 13 13 13 13 13 13 13 13 13 12 12 12 12 11 11 12 12 12 12 12 12 11 11 11 10 10 10 10 10 10 10 10
6 4 3 2 2 4 5 7 8 9 11 12 13 13 13 13 14 14 14 14 14 14 14 14 14 14 13 13 13 14 14 14 13 13 13 12 12 12 12 12 12 12 12 12
6 5 4 4 4 4 5 6 7 9 10 12 13 13 14 14 14 15 15 15 15 15 16 16 16 16 16 16 16 16 16 16 15 15 15 15 15 14 14 13 13 13 12 12
8 7 6 5 5 4 5 6 7 8 9 11 12 13 13 14 14 15 15 16 16 17 17 17 17 17 17 17 17 17 17 17 17 17 17 16 16 16 15 14 14 13 13 13
9 9 8 7 6 6 5 6 6 7 8 10 11 12 13 14 14 15 16 16 17 17 18 18 18 19 19 18 18 19 18 18 18 17 17 16 16 15 15 14 14 13 13 13
11 11 9 8 8 7 6 6 6 6 7 8 10 11 12 13 14 15 16 16 17 17 18 18 18 18 18 18 19 19 18 18 17 17 16 16 15 14 14 14 13 13 12 12
13 13 11 10 9 9 8 7 7 7 7 8 9 10 11 12 14 14 15 16 16 16 17 17 17 18 18 18 17 17 17 17 16 16 16 15 14 14 14 13 13 13 12 12
16 15 14 12 11 11 10 9 8 8 7 8 8 9 10 11 12 13 14 15 15 15 16 16 17 17 17 17 17 16 16 15 15 14 14 14 13 13 13 13 13 12 12 12
18 17 16 15 14 13 12 11 10 9 9 9 9 9 10 10 11 12 13 13 14 14 15 15 16 16 16 16 16 16 15 15 14 14 14 13 13 13 12 12 12 11 11 11
19 19 18 17 16 15 14 13 12 11 10 10 10 9 9 10 10 11 11 12 12 13 13 13 14 14 14 14 14 14 14 14 13 13 13 13 12 12 12 11 11 11 11 11
Wind_Direction
257 265 271 274 278 280 285 290 293 298 300 303 303 302 300 300 298 297 295 293 293 293 290 286 281 273 268 264 256 252 246 241 239 237 235 235 233 233 236 234 231 232 232 233
257 265 273 278 280 281 286 292 293 297 301 302 303 302 301 300 299 297 293 292 292 291 289 285 280 273 266 258 250 246 242 240 236 235 234 232 231 232 233 230 231 231 232 234
257 267 276 281 283 283 289 294 297 300 302 303 302 301 301 300 299 297 294 292 291 290 286 281 277 271 261 254 249 239 235 235 235 233 233 232 233 234 234 234 233 230 232 235
261 269 276 283 281 285 291 296 298 300 303 303 303 303 302 301 299 298 295 292 291 288 285 281 275 266 257 252 244 236 231 230 229 230 231 232 232 231 232 235 235 233 233 234
266 273 278 280 283 287 292 296 300 303 305 306 305 304 303 303 301 299 296 292 289 286 283 281 276 265 251 242 237 234 231 231 231 232 231 233 231 232 234 237 236 233 237 239
266 275 283 282 287 292 296 299 302 304 307 308 308 307 306 305 303 301 296 292 288 285 282 278 272 263 251 239 234 232 233 234 233 232 229 228 230 231 232 235 239 241 244 245
263 275 282 287 291 297 300 305 306 307 309 311 311 310 309 308 306 303 298 294 289 285 281 274 265 258 248 235 228 228 227 228 225 224 225 224 225 228 233 238 244 248 245 247
263 275 283 289 296 300 305 308 310 313 315 315 315 314 313 311 309 306 302 297 290 282 274 263 256 245 237 233 227 225 225 223 222 224 228 224 222 223 230 239 243 245 245 248
259 273 283 289 296 304 309 312 315 318 319 320 320 318 317 315 314 314 309 302 294 281 269 256 252 238 228 228 227 222 218 215 215 218 217 218 221 225 231 235 239 245 251 255
254 265 282 293 300 308 314 318 321 322 324 325 325 322 321 320 322 324 319 309 296 287 270 250 233 217 210 213 215 213 211 207 207 209 210 213 220 225 227 231 239 247 252 255
247 260 281 296 306 313 317 321 324 327 329 330 332 331 332 335 341 344 339 335 336 325 245 185 182 189 197 204 201 197 195 194 193 198 203 206 210 217 225 233 236 245 252 257
246 260 281 301 314 319 324 328 331 333 336 340 343 346 348 352 359 6 14 32 51 70 89 112 127 141 154 156 160 162 163 168 172 175 177 182 190 197 208 220 234 248 258 265
238 260 286 305 317 326 332 336 340 343 348 352 357 1 5 7 15 25 41 57 66 75 86 92 100 109 123 129 135 142 147 151 152 153 158 161 163 163 165 173 189 254 281 288
234 257 282 304 320 332 339 345 350 354 360 4 8 14 19 25 32 41 56 68 73 82 92 96 99 102 112 121 128 132 135 135 135 139 143 143 141 136 131 125 114 83 64 46
232 255 277 301 323 340 348 354 359 5 10 14 20 28 35 40 46 52 59 68 76 85 93 95 98 104 106 111 116 119 120 121 121 123 125 125 122 117 111 105 98 88 73 59
230 249 265 302 339 355 360 4 11 16 20 28 36 42 45 47 53 56 60 67 76 86 92 94 98 103 103 105 108 112 113 114 114 115 116 115 112 108 104 98 91 85 75 67
215 221 234 317 11 17 19 22 27 32 38 43 47 50 52 53 56 58 62 68 75 82 89 95 99 103 102 101 104 108 110 111 112 112 111 109 106 104 99 94 91 86 80 75
198 198 203 151 60 46 39 38 42 47 49 51 53 56 57 59 61 64 67 70 76 82 86 92 97 100 101 102 103 105 106 107 107 106 105 105 102 100 98 96 92 88 85 81
194 190 183 148 104 79 63 57 56 56 55 55 56 59 63 65 66 68 70 74 78 83 87 90 93 96 99 101 102 103 103 104 105 103 102 101 101 100 99 97 93 90 86 82
190 185 174 154 133 107 86 76 68 66 64 62 62 65 67 69 69 70 73 77 81 86 89 92 94 95 97 98 99 99 100 101 101 101 100 100 99 99 98 96 92 89 85 82
189 185 174 159 146 130 109 93 84 78 73 69 68 69 71 73 74 74 76 79 83 88 91 93 94 95 95 96 98 99 99 100 99 99 98 98 98 97 95 93 90 87 84 81
190 187 180 170 159 149 133 114 102 92 82 77 74 74 76 77 78 80 81 83 85 89 92 93 94 94 95 96 97 98 99 99 98 97 96 96 95 94 92 90 87 85 82 78
192 190 186 179 170 164 155 139 124 111 99 90 84 82 82 83 83 85 86 88 89 91 91 92 93 94 94 95 96 96 96 97 96 95 94 92 91 90 88 86 83 81 78 75
195 193 190 185 179 174 167 158 145 131 118 107 98 93 90 89 89 90 90 91 92 92 92 93 93 93 93 93 94 94 94 94 93 92 90 89 88 86 84 81 78 75 72 69
197 195 191 189 187 180 174 167 159 149 137 125 116 109 102 98 96 96 95 94 93 93 94 94 93 93 93 92 92 92 92 91 90 89 88 86 84 82 79 77 73 70 66 62
201 199 196 194 191 185 179 173 167 161 153 142 134 125 117 110 105 103 101 99 97 96 96 95 94 93 92 91 90 90 89 87 86 85 84 82 80 78 75 72 68 64 60 54
202 201 198 196 193 189 184 180 176 171 165 156 149 140 132 124 117 111 108 105 104 102 100 98 97 95 93 91 89 89 87 86 84 82 81 79 77 74 71 67 64 60 56 51
Height
5758 5758 5759 5759 5758 5758 5757 5756 5755 5754 5752 5750 5747 5744 5742 5739 5736 5733 5731 5728 5725 5723 5720 5718 5716 5715 5715 5714 5715 5716 5717 5719 5721 5723 5726 5728 5730 5732 5734 5737 5739 5741 5744 5746
5755 5755 5755 5755 5755 5754 5753 5752 5751 5749 5748 5745 5742 5739 5736 5733 5730 5727 5724 5721 5719 5716 5714 5712 5710 5709 5709 5709 5709 5711 5713 5714 5716 5718 5721 5723 5725 5727 5729 5732 5734 5736 5739 5741
5752 5752 5752 5753 5752 5751 5750 5749 5747 5745 5744 5740 5737 5734 5730 5727 5724 5721 5718 5715 5712 5710 5708 5706 5705 5704 5703 5704 5704 5706 5708 5710 5712 5714 5716 5718 5720 5723 5725 5727 5729 5731 5734 5736
5749 5750 5750 5752 5749 5748 5747 5745 5743 5741 5738 5735 5732 5728 5724 5721 5717 5714 5711 5709 5706 5704 5702 5701 5700 5699 5699 5699 5700 5702 5704 5706 5708 5710 5712 5714 5716 5718 5721 5723 5725 5726 5729 5731
5746 5746 5747 5747 5746 5744 5743 5742 5740 5737 5734 5730 5726 5722 5718 5715 5711 5708 5705 5702 5700 5698 5697 5696 5695 5694 5695 5695 5697 5698 5700 5702 5704 5706 5708 5710 5712 5714 5717 5719 5721 5723 5725 5727
5744 5744 5744 5745 5743 5741 5741 5738 5736 5732 5729 5725 5721 5717 5714 5709 5705 5702 5699 5697 5695 5693 5692 5692 5691 5691 5691 5692 5693 5695 5697 5699 5700 5702 5704 5706 5709 5711 5713 5716 5718 5720 5722 5724
5741 5741 5741 5741 5739 5738 5738 5736 5731 5728 5724 5720 5716 5712 5708 5704 5700 5697 5694 5692 5690 5689 5689 5688 5688 5689 5689 5690 5691 5693 5694 5696 5698 5700 5701 5704 5706 5708 5711 5713 5715 5717 5718 5720
5739 5739 5741 5738 5737 5736 5734 5730 5727 5723 5719 5715 5711 5707 5703 5699 5696 5692 5690 5688 5687 5686 5686 5686 5686 5687 5687 5688 5689 5690 5692 5694 5695 5697 5699 5701 5704 5706 5708 5710 5712 5714 5715 5716
5737 5739 5737 5735 5734 5732 5730 5727 5723 5720 5716 5711 5707 5703 5699 5696 5692 5689 5687 5685 5684 5683 5683 5683 5684 5685 5686 5687 5687 5688 5690 5692 5694 5696 5698 5700 5702 5704 5706 5708 5710 5711 5712 5713
5734 5735 5734 5733 5731 5729 5727 5724 5720 5717 5712 5708 5704 5700 5696 5693 5690 5687 5685 5683 5682 5682 5682 5682 5683 5684 5685 5686 5687 5688 5689 5691 5693 5695 5697 5699 5701 5703 5704 5706 5707 5709 5710 5711
5733 5733 5733 5731 5729 5727 5725 5721 5718 5714 5710 5705 5701 5698 5694 5691 5688 5686 5684 5683 5682 5682 5681 5682 5682 5683 5684 5685 5686 5688 5689 5691 5692 5694 5696 5698 5700 5702 5703 5705 5706 5707 5708 5709
5731 5732 5731 5730 5728 5726 5723 5719 5716 5712 5708 5704 5700 5696 5693 5690 5688 5686 5685 5684 5683 5683 5682 5682 5683 5683 5684 5685 5687 5688 5689 5691 5692 5694 5696 5698 5700 5701 5702 5704 5705 5705 5706 5707
5730 5730 5730 5728 5726 5724 5721 5718 5714 5710 5707 5703 5700 5696 5693 5691 5689 5687 5686 5685 5685 5684 5684 5684 5684 5685 5685 5686 5688 5689 5691 5692 5693 5695 5697 5698 5700 5701 5702 5704 5704 5705 5705 5705
5728 5729 5728 5727 5725 5723 5720 5717 5714 5710 5707 5704 5700 5697 5694 5692 5690 5689 5688 5687 5687 5686 5686 5686 5687 5687 5687 5688 5689 5691 5692 5693 5695 5696 5698 5699 5700 5702 5703 5704 5705 5705 5705 5705
5727 5727 5727 5726 5724 5722 5720 5717 5714 5711 5708 5705 5702 5699 5697 5694 5693 5691 5690 5689 5689 5689 5689 5689 5689 5689 5690 5691 5691 5693 5694 5695 5696 5698 5699 5700 5701 5702 5703 5704 5705 5706 5706 5706
5726 5726 5726 5725 5724 5722 5720 5718 5715 5712 5709 5706 5704 5701 5699 5697 5696 5694 5693 5692 5692 5691 5691 5691 5691 5692 5692 5693 5694 5695 5696 5697 5698 5699 5701 5702 5703 5704 5705 5706 5706 5707 5707 5707
5725 5725 5725 5725 5724 5722 5721 5719 5717 5714 5711 5709 5707 5705 5703 5701 5699 5697 5696 5695 5694 5694 5694 5694 5694 5695 5695 5696 5697 5697 5698 5699 5701 5702 5703 5704 5705 5706 5707 5707 5708 5709 5709 5709
5724 5725 5725 5725 5724 5723 5722 5721 5719 5717 5715 5713 5710 5708 5706 5705 5703 5701 5700 5699 5698 5698 5698 5698 5698 5698 5699 5699 5700 5701 5701 5702 5703 5704 5705 5706 5707 5708 5709 5710 5711 5711 5711 5712
5724 5724 5725 5725 5725 5724 5723 5723 5722 5720 5718 5716 5714 5712 5711 5709 5707 5706 5705 5703 5703 5702 5702 5702 5702 5702 5702 5703 5704 5704 5705 5706 5707 5708 5708 5709 5710 5711 5712 5713 5713 5714 5714 5714
5723 5724 5725 5725 5725 5725 5725 5725 5724 5723 5722 5720 5718 5717 5715 5714 5712 5711 5709 5708 5707 5707 5707 5706 5707 5707 5707 5707 5708 5708 5709 5710 5710 5711 5712 5713 5714 5714 5715 5716 5717 5717 5717 5717
5723 5724 5725 5726 5726 5727 5727 5727 5726 5726 5725 5724 5722 5721 5720 5718 5717 5715 5714 5713 5712 5712 5712 5712 5712 5712 5712 5712 5713 5713 5714 5714 5715 5716 5716 5717 5718 5718 5719 5719 5720 5720 5720 5720
5723 5724 5725 5726 5727 5728 5728 5728 5729 5728 5728 5727 5726 5725 5724 5723 5721 5720 5719 5718 5718 5717 5717 5717 5717 5717 5717 5717 5718 5718 5719 5719 5720 5720 5721 5722 5722 5723 5723 5723 5723 5724 5723 5723
5722 5724 5725 5727 5728 5728 5729 5730 5730 5731 5730 5730 5729 5729 5728 5727 5726 5725 5724 5724 5723 5723 5723 5723 5723 5723 5723 5723 5723 5724 5724 5725 5725 5725 5726 5726 5726 5727 5727 5727 5727 5727 5727 5726
5721 5723 5725 5726 5728 5729 5730 5731 5732 5732 5733 5733 5732 5732 5732 5731 5730 5730 5729 5729 5729 5729 5728 5728 5728 5728 5728 5728 5728 5729 5729 5729 5730 5730 5730 5730 5731 5731 5730 5730 5730 5730 5730 5729
5720 5722 5723 5725 5727 5729 5730 5731 5732 5734 5734 5735 5735 5735 5735 5735 5734 5734 5734 5734 5734 5734 5733 5733 5733 5733 5733 5733 5733 5733 5734 5734 5734 5734 5734 5734 5734 5734 5734 5734 5733 5733 5732 5732
5718 5720 5722 5724 5726 5728 5730 5731 5733 5734 5735 5736 5737 5737 5738 5738 5738 5738 5738 5738 5738 5738 5738 5738 5738 5738 5738 5738 5738 5738 5738 5738 5738 5738 5738 5738 5738 5737 5737 5736 5736 5735 5735 5734
5715 5718 5720 5723 5725 5727 5729 5731 5733 5735 5736 5738 5739 5739 5740 5740 5741 5741 5741 5741 5741 5742 5742 5742 5742 5742 5742 5742 5742 5742 5742 5742 5742 5741 5741 5741 5741 5740 5740 5739 5738 5738 5737 5736